User: anonymous   Login
Location: Terra Rouge Observatory
(46.0000°N, 62.7500°W)
Time: 08:57:20
(UTC-03:00)
Language:

Landsat 5 - Orbit

View from above orbital plane
View from above orbital plane
View from above satellite
View from above satellite

Ground track
Ground track

The orbit data is extracted from the following two-line orbital elements,

1 14780U 84021A   16271.84820522  .00000461  00000-0  49238-4 0  9994
2 14780  98.0282  13.0123 0090347 313.6283  45.7465 14.91249817736777
Epoch (UTC): 27 September 2016 20:21:24
Eccentricity: 0.0090347
inclination: 98.0282°
perigee height: 531 km
apogee height: 657 km
right ascension of ascending node: 13.0123°
argument of perigee: 313.6283°
revolutions per day: 14.91249817
mean anomaly at epoch: 45.7465°
orbit number at epoch: 73677

The dashed part of the orbit path shows where the satellite is in the earth's shadow,  

DLR